TimePST,TemperatureF,Dew PointF,Humidity,Sea Level PressureIn,VisibilityMPH,Wind Direction,Wind SpeedMPH,Gust SpeedMPH,PrecipitationIn,Events,Conditions,WindDirDegrees,DateUTC
12:53 AM,46.0,39.9,79,30.01,10.0,NE,4.6,-,N/A,,Scattered Clouds,40,2013-01-07 08:53:00
1:53 AM,46.0,39.0,76,29.98,9.0,Calm,Calm,-,N/A,,Scattered Clouds,0,2013-01-07 09:53:00
2:53 AM,48.0,39.9,74,29.97,10.0,NNW,4.6,-,N/A,,Scattered Clouds,340,2013-01-07 10:53:00
3:53 AM,46.9,39.0,74,30.00,10.0,Calm,Calm,-,N/A,,Scattered Clouds,0,2013-01-07 11:53:00
4:53 AM,46.9,37.9,71,30.00,10.0,West,4.6,-,N/A,,Scattered Clouds,280,2013-01-07 12:53:00
5:53 AM,46.6,36.0,67,30.02,10.0,Variable,6.9,-,0.01,,Partly Cloudy,0,2013-01-07 13:53:00
6:53 AM,48.2,35.1,60,30.05,10.0,Variable,4.6,-,N/A,,Partly Cloudy,0,2013-01-07 14:53:00
7:53 AM,47.8,36.0,63,30.07,10.0,Calm,Calm,-,N/A,,Partly Cloudy,0,2013-01-07 15:53:00
8:53 AM,58.6,28.9,32,30.07,10.0,East,5.8,-,N/A,,Partly Cloudy,100,2013-01-07 16:53:00
9:53 AM,62.8,25.0,24,30.08,10.0,ENE,12.7,-,N/A,,Partly Cloudy,70,2013-01-07 17:53:00
10:53 AM,62.6,19.4,19,30.05,10.0,NE,12.7,25.3,N/A,,Partly Cloudy,40,2013-01-07 18:53:00
11:53 AM,64.9,17.1,16,30.00,10.0,Variable,6.9,-,N/A,,Partly Cloudy,0,2013-01-07 19:53:00
12:53 PM,66.0,24.1,20,29.98,10.0,Variable,5.8,-,N/A,,Partly Cloudy,0,2013-01-07 20:53:00
1:53 PM,64.9,19.9,18,29.97,10.0,SW,9.2,-,N/A,,Partly Cloudy,230,2013-01-07 21:53:00
2:53 PM,62.6,26.6,26,29.99,10.0,West,8.1,-,N/A,,Scattered Clouds,260,2013-01-07 22:53:00
3:53 PM,62.1,28.9,29,29.99,10.0,West,6.9,-,N/A,,Scattered Clouds,270,2013-01-07 23:53:00
4:53 PM,59.2,28.0,31,30.00,10.0,Calm,Calm,-,N/A,,Scattered Clouds,0,2013-01-08 00:53:00
5:53 PM,55.0,32.0,42,30.00,10.0,West,4.6,-,N/A,,Mostly Cloudy,260,2013-01-08 01:53:00
6:53 PM,50.2,33.1,52,30.01,10.0,NNW,3.5,-,N/A,,Mostly Cloudy,330,2013-01-08 02:53:00
7:53 PM,48.9,34.0,56,30.02,10.0,North,5.8,-,N/A,,Mostly Cloudy,350,2013-01-08 03:53:00
8:53 PM,49.1,28.0,44,30.02,10.0,North,8.1,-,N/A,,Scattered Clouds,360,2013-01-08 04:53:00
9:53 PM,50.2,25.0,37,30.01,10.0,Calm,Calm,-,N/A,,Scattered Clouds,0,2013-01-08 05:53:00
10:53 PM,47.7,25.0,41,30.03,10.0,North,3.5,-,N/A,,Clear,360,2013-01-08 06:53:00
11:53 PM,48.9,25.0,39,30.04,10.0,North,4.6,-,N/A,,Clear,350,2013-01-08 07:53:00